Location: Hermaringen
(48.5952°N, 10.2585°E)
Time: 04:46:32
(UTC+00:00)

Transit 2A - Pass Details

Date: 24 February 2026
Orbit: 590 x 954 km, 66.7° (Epoch: 14 March)

Event Time Altitude Azimuth Distance (km) Brightness Sun altitude
Rises 19:59:47 0° 318° (NW) 3,544 10.4 -30.8°
Reaches altitude 10° 20:02:42 10° 308° (NW) 2,550 9.5 -31.3°
Maximum altitude 20:07:37 28° 251° (WSW) 1,520 7.8 -32.0°
Enters shadow 20:09:03 25° 226° (SW) 1,604 7.8 -32.2°
